Location: Buchberg
(46.9333°N, 15.8500°E)
Time: 03:55:34
(UTC+00:00)

Cosmos 1263 - Pass Details

Date: 14 July 2020
Orbit: 384 x 1341 km, 82.9° (Epoch: 11 August)

Event Time Altitude Azimuth Distance (km) Brightness Sun altitude
Rises 02:13:49 0° 347° (NNW) 2,309 8.5 -9.0°
Reaches altitude 10° 02:15:50 10° 342° (NNW) 1,424 7.3 -8.8°
Maximum altitude 02:18:45 53° 265° (W) 489 4.3 -8.4°
Drops below altitude 10° 02:21:46 10° 187° (S) 1,473 6.6 -8.1°
Enters shadow 02:22:55 - 184° (S) 1,976 7.2 -7.9°
